Fresno, CA

11:59 AM PDT on October 01, 2016 (GMT -0700)
Fresno Yosemite International

Weather History for KFAT - March, 2014

Change the Weather History Date:

Tuesday, March 4, 2014

  Actual Average Record
Temperature  
Mean Temperature 64 °F 55 °F  
Max Temperature 72 °F 66 °F 84 °F (1929)
Min Temperature 56 °F 44 °F 30 °F (1966)
Degree Days  
Heating Degree Days 1    
Month to date heating degree days 21  
Since 1 July heating degree days 1366  
Cooling Degree Days 0    
Month to date cooling degree days 0  
Year to date cooling degree days 0  
Growing Degree Days 14 (Base 50)    
Moisture  
Dew Point 52 °F    
Average Humidity 69    
Maximum Humidity 86    
Minimum Humidity 51    
Precipitation  
Precipitation T in 0.08 in 0.98 in (1978)
Month to date precipitation T 0.29  
Year to date precipitation 2.68 4.51  
Since 1 July precipitation 3.41  
Snow  
Snow 0.00 in - - ()
Month to date snowfall 0.0  
Since 1 July snowfall 0.0  
Snow Depth 0.00 in    
Sea Level Pressure  
Sea Level Pressure 30.08 in    
Wind  
Wind Speed 5 mph (WNW)    
Max Wind Speed 10 mph    
Max Gust Speed 15 mph    
Visibility 10 miles    
Events      
T = Trace of Precipitation, MM = Missing Value Source: NWS Daily Summary

Daily Weather History Graph

Daily Weather History Graph

Search for Another Location

Airport or City:

Trip Planner

Search our weather history database for the weather conditions in past years. The results will help you decide how hot, cold, wet, or windy it might be!

Date:

Astronomy

Mar. 04, 2014 Rise Set
Actual Time 6:25 AM PST 5:56 PM PST
Civil Twilight 5:59 AM PST 6:22 PM PST
Nautical Twilight 5:29 AM PST 6:52 PM PST
Astronomical Twilight 4:59 AM PST 7:22 PM PST
Moon 8:21 AM PST (3/4) 10:01 PM PST (3/4)
Length of Visible Light 12h 22m
Length of Day
11h 30m
Waxing Crescent, 15% of the Moon is Illuminated
Mar 4
Waxing Crescent
Mar 8
First Quarter
Mar 16
Full
Mar 23
Last Quarter
Mar 30
New

Hourly Weather History & Observations

Time (PST) Temp. Dew Point Humidity Pressure Visibility Wind Dir Wind Speed Gust Speed Precip Events Conditions
12:53 AM 59.0 °F 51.1 °F 75% 30.10 in 10.0 mi NW 8.1 mph - N/A   Overcast
1:53 AM 57.0 °F 51.1 °F 81% 30.10 in 10.0 mi WNW 4.6 mph - 0.00 in   Overcast
2:53 AM 57.0 °F 51.1 °F 81% 30.08 in 10.0 mi WNW 6.9 mph - N/A   Overcast
3:53 AM 57.0 °F 51.1 °F 81% 30.05 in 10.0 mi Calm Calm - 0.00 in   Overcast
4:53 AM 55.9 °F 51.1 °F 84% 30.05 in 10.0 mi WNW 5.8 mph - N/A   Overcast
5:53 AM 55.9 °F 51.1 °F 84% 30.06 in 10.0 mi NW 8.1 mph - N/A   Overcast
6:53 AM 55.9 °F 51.1 °F 84% 30.08 in 10.0 mi NW 4.6 mph - N/A   Overcast
7:53 AM 57.0 °F 51.1 °F 81% 30.10 in 10.0 mi North 3.5 mph - N/A   Overcast
8:53 AM 59.0 °F 51.1 °F 75% 30.12 in 10.0 mi NW 4.6 mph - N/A   Mostly Cloudy
9:53 AM 62.1 °F 52.0 °F 70% 30.12 in 10.0 mi North 4.6 mph - N/A   Mostly Cloudy
10:53 AM 64.0 °F 51.1 °F 63% 30.10 in 10.0 mi Variable 3.5 mph - N/A   Mostly Cloudy
11:53 AM 66.9 °F 51.1 °F 57% 30.08 in 10.0 mi WNW 6.9 mph - N/A   Mostly Cloudy
12:53 PM 69.1 °F 50.0 °F 51% 30.07 in 10.0 mi WSW 8.1 mph - N/A   Mostly Cloudy
1:53 PM 69.1 °F 51.1 °F 53% 30.06 in 10.0 mi West 6.9 mph - N/A   Mostly Cloudy
2:53 PM 69.1 °F 50.0 °F 51% 30.04 in 10.0 mi WSW 3.5 mph - N/A   Mostly Cloudy
3:53 PM 70.0 °F 50.0 °F 49% 30.02 in 10.0 mi Calm Calm - N/A   Mostly Cloudy
4:53 PM 69.1 °F 51.1 °F 53% 30.03 in 10.0 mi WSW 9.2 mph - N/A   Mostly Cloudy
5:53 PM 68.0 °F 52.0 °F 56% 30.04 in 10.0 mi WSW 9.2 mph - N/A   Mostly Cloudy
6:53 PM 66.0 °F 52.0 °F 60% 30.06 in 10.0 mi SW 8.1 mph - N/A   Mostly Cloudy
7:53 PM 64.9 °F 53.1 °F 65% 30.09 in 10.0 mi WNW 4.6 mph - N/A   Mostly Cloudy
8:53 PM 64.0 °F 54.0 °F 70% 30.10 in 10.0 mi WNW 4.6 mph - N/A   Mostly Cloudy
9:53 PM 64.0 °F 54.0 °F 70% 30.10 in 10.0 mi NW 4.6 mph - N/A   Mostly Cloudy
10:53 PM 63.0 °F 54.0 °F 72% 30.10 in 10.0 mi Calm Calm - N/A   Mostly Cloudy
11:53 PM 60.1 °F 54.0 °F 80% 30.10 in 10.0 mi West 3.5 mph - N/A   Overcast